Location: Les Chemineaux
(47.3024°N, 1.5104°E)
Time: 17:19:22
(UTC+00:00)

USA 59 Rocket - Visible Passes

Search period start: 18 January 2026 00:00
Search period end: 28 January 2026 00:00
Orbit: 369 x 1675 km, 63.3° (Epoch: 17 January)

Date Brightness Start Highest point End Pass type
(mag) Time Alt. Az. Time Alt. Az. Time Alt. Az.
18 Jan 0.6 17:33:27 10° NNW 17:36:21 27° NE 17:39:29 12° E visible
18 Jan 1.3 19:21:43 10° WNW 19:25:03 34° SW 19:25:13 34° SW visible
19 Jan -0.4 18:12:47 10° NW 18:16:13 78° NE 18:20:17 12° SE visible
19 Jan 3.0 20:03:02 10° W 20:04:47 12° WSW 20:06:06 11° SW visible
20 Jan 1.4 18:52:38 10° WNW 18:55:59 34° SW 19:00:19 10° S visible
21 Jan -0.4 17:43:40 10° NW 17:47:06 78° NE 17:51:39 10° SE visible
21 Jan 3.1 19:33:55 10° W 19:35:41 12° WSW 19:37:36 10° SW visible
22 Jan 1.6 18:23:29 10° WNW 18:26:50 34° SW 18:31:09 10° S visible
23 Jan -0.3 17:14:29 10° NW 17:17:54 78° NE 17:22:28 10° SE visible
23 Jan 3.3 19:04:45 10° W 19:06:29 12° WSW 19:08:24 10° SW visible
24 Jan 1.7 17:54:16 10° WNW 17:57:36 34° SW 18:01:56 10° S visible
25 Jan 3.4 18:35:29 10° W 18:37:13 12° WSW 18:39:09 10° SW visible
26 Jan 1.8 17:24:58 10° WNW 17:28:18 34° SW 17:32:38 10° S visible
27 Jan 3.5 18:06:09 10° W 18:07:54 12° WSW 18:09:49 10° SW visible
